Weather History for Sparta, IL

Change the Weather History Date:

Thursday, September 20, 2012

  Actual Average (KBLV) Record (KBLV)
Temperature  
Mean Temperature 68 °F -  
Max Temperature 78 °F 80 °F 95 °F (1948)
Min Temperature 59 °F 55 °F 32 °F (1991)
Cooling Degree Days 4    
Growing Degree Days 18 (Base 50)    
Moisture  
Dew Point 47 °F    
Average Humidity 52    
Maximum Humidity 77    
Minimum Humidity 17    
Precipitation  
Precipitation 0.00 in - - ()
Sea Level Pressure  
Sea Level Pressure 29.98 in    
Wind  
Wind Speed 7 mph (SW)    
Max Wind Speed 13 mph    
Max Gust Speed 17 mph    
Visibility 10 miles    
Events      
Averages and records for this station are not official NWS values.
T = Trace of Precipitation, MM = Missing Value Source: NWS Daily Summary

Daily Weather History Graph

Daily Weather History Graph

Search for Another Location

Airport:

Trip Planner

Search our weather history database for the weather conditions in past years. The results will help you decide how hot, cold, wet, or windy it might be!

Date:

Astronomy

Sep. 20, 2012 Rise Set
Actual Time 6:45 AM CDT 6:58 PM CDT
Civil Twilight 6:18 AM CDT 7:24 PM CDT
Nautical Twilight 5:48 AM CDT 7:55 PM CDT
Astronomical Twilight 5:16 AM CDT 8:26 PM CDT
Moon 11:58 AM CDT 10:05 PM CDT
Length of Visible Light 13h 05m
Length of Day
12h 12m
Waxing Crescent, 27% of the Moon is Illuminated
Sep 20
Waxing Crescent
Sep 22
First Quarter
Sep 29
Full
Oct 8
Last Quarter
Oct 15
New

Hourly Weather History & Observations

Time (CDT) Temp. Dew Point Humidity Pressure Visibility Wind Dir Wind Speed Gust Speed Precip Events Conditions
12:15 AM 60.8 °F 48.2 °F 63% 30.00 in 10.0 mi South 9.2 mph - N/A   Clear
12:35 AM 60.8 °F 48.2 °F 63% 30.01 in 10.0 mi South 8.1 mph - N/A   Clear
12:55 AM 60.8 °F 48.2 °F 63% 30.01 in 10.0 mi South 9.2 mph - N/A   Clear
1:15 AM 60.8 °F 48.2 °F 63% 30.01 in 10.0 mi South 9.2 mph - N/A   Clear
1:35 AM 60.8 °F 48.2 °F 63% 30.01 in 10.0 mi South 8.1 mph - N/A   Clear
1:55 AM 60.8 °F 48.2 °F 63% 30.00 in 10.0 mi South 8.1 mph - N/A   Clear
2:15 AM 60.8 °F 48.2 °F 63% 30.00 in 10.0 mi South 9.2 mph - N/A   Clear
2:35 AM 60.8 °F 48.2 °F 63% 29.99 in 10.0 mi South 11.5 mph - N/A   Clear
2:55 AM 60.8 °F 50.0 °F 68% 29.99 in 10.0 mi South 9.2 mph - N/A   Clear
3:15 AM 60.8 °F 50.0 °F 68% 29.99 in 10.0 mi South 9.2 mph - N/A   Clear
3:35 AM 60.8 °F 50.0 °F 68% 29.98 in 10.0 mi South 9.2 mph - N/A   Clear
3:55 AM 60.8 °F 50.0 °F 68% 29.98 in 10.0 mi South 8.1 mph - N/A   Clear
4:15 AM 60.8 °F 51.8 °F 72% 29.97 in 10.0 mi South 10.4 mph - N/A   Clear
4:35 AM 60.8 °F 51.8 °F 72% 29.97 in 10.0 mi South 10.4 mph - N/A   Clear
4:55 AM 60.8 °F 51.8 °F 72% 29.98 in 10.0 mi South 12.7 mph 17.3 mph N/A   Clear
5:15 AM 60.8 °F 51.8 °F 72% 29.99 in 10.0 mi WSW 5.8 mph - N/A   Clear
5:35 AM 59.0 °F 51.8 °F 77% 30.00 in 10.0 mi SSW 5.8 mph - N/A   Clear
5:55 AM 60.8 °F 51.8 °F 72% 29.99 in 10.0 mi South 8.1 mph - N/A   Clear
6:15 AM 60.8 °F 51.8 °F 72% 29.99 in 10.0 mi SSW 6.9 mph - N/A   Clear
6:35 AM 60.8 °F 51.8 °F 72% 29.99 in 10.0 mi South 8.1 mph - N/A   Clear
6:55 AM 60.8 °F 51.8 °F 72% 29.98 in 10.0 mi South 8.1 mph - N/A   Clear
7:15 AM 60.8 °F 51.8 °F 72% 29.98 in 10.0 mi South 8.1 mph - N/A   Clear
7:35 AM 60.8 °F 53.6 °F 77% 29.98 in 10.0 mi SSW 8.1 mph - N/A   Clear
7:55 AM 60.8 °F 53.6 °F 77% 29.97 in 10.0 mi SSW 10.4 mph - N/A   Clear
8:15 AM 62.6 °F 53.6 °F 72% 29.98 in 10.0 mi SSW 8.1 mph - N/A   Scattered Clouds
8:35 AM 62.6 °F 53.6 °F 72% 29.98 in 10.0 mi SW 6.9 mph - N/A   Scattered Clouds
8:55 AM 64.4 °F 53.6 °F 68% 29.98 in 10.0 mi SSW 8.1 mph - N/A   Scattered Clouds
9:15 AM 66.2 °F 55.4 °F 68% 29.98 in 10.0 mi SW 9.2 mph - N/A   Clear
9:35 AM 68.0 °F 53.6 °F 60% 29.98 in 10.0 mi SW 6.9 mph - N/A   Clear
9:55 AM 69.8 °F 53.6 °F 56% 29.98 in 10.0 mi SW 12.7 mph - N/A   Clear
10:15 AM 71.6 °F 55.4 °F 57% 29.98 in 10.0 mi SW 10.4 mph - N/A   Clear
10:35 AM 71.6 °F 53.6 °F 53% 29.98 in 10.0 mi SW 8.1 mph - N/A   Clear
10:55 AM 73.4 °F 53.6 °F 50% 29.98 in 10.0 mi WSW 10.4 mph - N/A   Clear
11:15 AM 73.4 °F 53.6 °F 50% 29.98 in 10.0 mi West 9.2 mph - N/A   Clear
11:35 AM 73.4 °F 51.8 °F 47% 29.98 in 10.0 mi West 8.1 mph - N/A   Scattered Clouds
11:55 AM 73.4 °F 51.8 °F 47% 29.98 in 10.0 mi WSW 6.9 mph - N/A   Clear
12:15 PM 73.4 °F 53.6 °F 50% 29.98 in 10.0 mi WNW 9.2 mph - N/A   Scattered Clouds
12:35 PM 71.6 °F 55.4 °F 57% 29.98 in 10.0 mi WNW 9.2 mph - N/A   Scattered Clouds
12:55 PM 73.4 °F 55.4 °F 53% 29.99 in 10.0 mi West 4.6 mph - N/A   Scattered Clouds
1:15 PM 73.4 °F 55.4 °F 53% 29.98 in 10.0 mi West 8.1 mph 17.3 mph N/A   Scattered Clouds
1:35 PM 73.4 °F 55.4 °F 53% 29.98 in 10.0 mi West 3.5 mph - N/A   Scattered Clouds
1:55 PM 75.2 °F 55.4 °F 50% 29.97 in 10.0 mi West 10.4 mph - N/A   Clear
2:15 PM 75.2 °F 53.6 °F 47% 29.97 in 10.0 mi West 9.2 mph - N/A   Clear
2:35 PM 77.0 °F 48.2 °F 36% 29.96 in 10.0 mi WNW 4.6 mph - N/A   Clear
2:55 PM 77.0 °F 48.2 °F 36% 29.96 in 10.0 mi WSW 4.6 mph - N/A   Clear
3:15 PM 78.8 °F 37.4 °F 23% 29.96 in 10.0 mi West 6.9 mph - N/A   Clear
3:35 PM 78.8 °F 30.2 °F 17% 29.96 in 10.0 mi West 9.2 mph - N/A   Clear
3:55 PM 78.8 °F 35.6 °F 21% 29.96 in 10.0 mi WNW 8.1 mph - N/A   Clear
4:15 PM 77.0 °F 33.8 °F 21% 29.96 in 10.0 mi WNW 5.8 mph - N/A   Clear
4:35 PM 77.0 °F 33.8 °F 21% 29.96 in 10.0 mi NW 6.9 mph - N/A   Clear
4:55 PM 77.0 °F 33.8 °F 21% 29.96 in 10.0 mi NW 5.8 mph - N/A   Clear
5:15 PM 75.2 °F 30.2 °F 19% 29.96 in 10.0 mi NW 6.9 mph - N/A   Clear
5:35 PM 75.2 °F 33.8 °F 22% 29.96 in 10.0 mi NW 6.9 mph - N/A   Clear
5:55 PM 75.2 °F 33.8 °F 22% 29.97 in 10.0 mi Calm Calm - N/A   Clear
6:15 PM 73.4 °F 37.4 °F 27% 29.97 in 10.0 mi Calm Calm - N/A   Clear
6:35 PM 71.6 °F 39.2 °F 31% 29.97 in 10.0 mi Calm Calm - N/A   Clear
6:55 PM 71.6 °F 39.2 °F 31% 29.98 in 10.0 mi Calm Calm - N/A   Clear
7:15 PM 69.8 °F 39.2 °F 33% 29.97 in 10.0 mi Calm Calm - N/A   Clear
7:35 PM 69.8 °F 44.6 °F 40% 29.98 in 10.0 mi Calm Calm - N/A   Clear
7:55 PM 66.2 °F 44.6 °F 46% 29.99 in 10.0 mi Calm Calm - N/A   Clear
8:15 PM 66.2 °F 39.2 °F 37% 29.98 in 10.0 mi Calm Calm - N/A   Clear
8:35 PM 66.2 °F 42.8 °F 43% 29.99 in 10.0 mi Calm Calm - N/A   Clear
8:55 PM 64.4 °F 42.8 °F 45% 29.99 in 10.0 mi Calm Calm - N/A   Clear
9:15 PM 64.4 °F 37.4 °F 37% 29.99 in 10.0 mi Calm Calm - N/A   Clear
9:35 PM 64.4 °F 39.2 °F 40% 30.00 in 10.0 mi Calm Calm - N/A   Clear
9:55 PM 64.4 °F 42.8 °F 45% 30.01 in 10.0 mi Calm Calm - N/A   Clear
10:15 PM 62.6 °F 44.6 °F 52% 30.00 in 10.0 mi Calm Calm - N/A   Clear
10:35 PM 62.6 °F 39.2 °F 42% 30.01 in 10.0 mi Calm Calm - N/A   Clear
10:55 PM 62.6 °F 42.8 °F 48% 30.01 in 10.0 mi Calm Calm - N/A   Clear
11:15 PM 60.8 °F 44.6 °F 55% 30.01 in 10.0 mi Calm Calm - N/A   Clear
11:35 PM 60.8 °F 44.6 °F 55% 30.01 in 10.0 mi Calm Calm - N/A   Clear
11:55 PM 59.0 °F 46.4 °F 63% 30.01 in 10.0 mi Calm Calm - N/A   Clear